Home > Weather > Reutte > Past weeks

Flag for Austria Weather for the Past 2 Weeks in Reutte, Tyrol, Austria

Now
30 °F

Chilly.


Feels Like: 27 °F
Forecast: 35 / 49 °F
Wind: 3 mph from Southwest

Location: Altenstadt Airport

Current Time: Feb 6, 2016 at 1:32:34 AM

Latest Report: Feb 6, 2016 at 12:20 AM


Visibility: N/A

Pressure: 30.21 "Hg (27.13 "Hg at 856m altitude)

Humidity: 100%

Dew point: 30 °F

Location of ReutteLocation

Historic Weather in Reutte — Graph

°F

Reutte Temperature Yesterday

Maximum temperature yesterday: 43 °F (at 3:20 PM)
Minimum temperature yesterday: 28 °F (at 11:20 PM)
Average temperature yesterday: 37 °F

High & Low Weather Summary for the Past Weeks

 TemperatureHumidityPressure
High55 °F (Jan 26, 2:20 PM)100% (Jan 22, 2:20 AM)30.63 "Hg (Jan 22, 2:20 AM)
Low12 °F (Jan 22, 8:20 AM)39% (Jan 24, 9:20 PM)29.92 "Hg (Jan 30, 6:20 PM)
Average39 °F79%30.26 "Hg
* Reported Jan 21 11:20 PM — Feb 5 11:20 PM, Reutte, Weather by CustomWeather, © 2016

Note: Actual official high and low records may vary slightly from our data, if they occured in-between our weather recording intervals... More about our weather records

Advertising

Reutte Weather History for the Previous 24 Hours

 ConditionsComfort  
Time TempWeatherWind HumidityBarometerVisibility
11:20 PM
Fri, Feb 5
28 °FChilly.6 mph100%30.21 "HgN/A
10:20 PM32 °FChilly.3 mph93%30.24 "HgN/A
9:20 PM32 °FChilly.3 mph93%30.24 "HgN/A
8:20 PM36 °FPassing clouds.2 mph93%30.27 "HgN/A
7:20 PM34 °FPassing clouds.3 mph93%30.27 "HgN/A
6:20 PM39 °FPassing clouds.3 mph81%30.30 "HgN/A
5:20 PM41 °FScattered clouds.5 mph81%30.30 "HgN/A
4:20 PM43 °FBroken clouds.7 mph76%30.30 "HgN/A
3:20 PM43 °FBroken clouds.7 mph76%30.30 "HgN/A
2:20 PM41 °FPartly sunny.12 mph81%30.30 "HgN/A
1:20 PM41 °FPartly sunny.15 mph76%30.33 "HgN/A
12:20 PM39 °FBroken clouds.14 mph87%30.36 "HgN/A
11:20 AM39 °FPartly sunny.12 mph87%30.36 "HgN/A
10:20 AM37 °FLight rain. Partly sunny.12 mph87%30.36 "HgN/A
9:20 AM36 °FPartly sunny.7 mph93%30.36 "HgN/A
8:20 AM36 °FLight rain. Partly sunny.8 mph87%30.36 "HgN/A
7:20 AM36 °FLight rain. Passing clouds.13 mph87%30.33 "Hg6 mi
6:20 AM36 °FLight rain. Passing clouds.12 mph93%30.33 "Hg6 mi
5:45 AM36 °FRain. Passing clouds.12 mph93%30.33 "Hg3 mi
5:20 AM36 °FLight rain. Passing clouds.15 mph87%30.30 "Hg4 mi
4:20 AM36 °FChilly.18 mph87%30.27 "HgN/A
3:20 AM36 °FChilly.16 mph87%30.27 "HgN/A
2:20 AM34 °FChilly.17 mph93%30.27 "HgN/A
1:20 AM36 °FChilly.22 mph87%30.24 "HgN/A
Weather by CustomWeather, © 2016

See weather overviewHow to use our weather pages